[TLELIST] Archives

 

Current TLEs

November 4th 2006 PDT

HST 1 20580U 90037B 06307.21452382 .00000529 00000-0 28346-4 0 7325 2 20580 028.4685 223.5434 0003908 215.5583 144.4747 15.00121807705998 ISS (ZARYA) 1 25544U 98067A 06308.46247685 .00021117 00000-0 12669-3 0 9909 2 25544 051.6356 184.6030 0012506 170.9110 187.9738 15.77649258455284 CXO 1 25867U 99040B 06307.87500000 +.00000443 +00000-0 +00000-0 0 09964 2 25867 060.5475 094.0511 5943757 288.2063 355.5469 00.37809287001402 ____________________________________________________________________ These 2-Line ...Continue Reading

Current TLEs

November 3rd 2006 PDT

HST 1 20580U 90037B 06305.95044574 +.00000535 +00000-0 +28832-4 0 07321 2 20580 028.4687 231.7855 0003958 203.7590 156.2815 15.00120972705809 ISS (ZARYA) 1 25544U 98067A 06307.03084147 .00017952 00000-0 10865-3 0 9800 2 25544 051.6344 191.9935 0012779 166.0519 336.4589 15.77580220455061 CXO 1 25867U 99040B 06305.20833333 +.00000504 +00000-0 +00000-0 0 09954 2 25867 060.5236 094.1198 5939762 288.2068 352.6112 00.37807576001395 ____________________________________________________________________ These 2-Line ...Continue Reading

Current TLEs

November 2nd 2006 PDT

HST 1 20580U 90037B 06305.88391534 .00000540 00000-0 29208-4 0 7317 2 20580 028.4687 232.2191 0003950 202.9156 157.1257 15.00120960705794 ISS (ZARYA) 1 25544U 98067A 06306.33634259 .00018671 00000-0 11295-3 0 9758 2 25544 051.6350 195.5795 0012622 163.9531 351.6670 15.77557348454951 CXO 1 25867U 99040B 06305.20833333 +.00000504 +00000-0 +00000-0 0 09954 2 25867 060.5236 094.1198 5939762 288.2068 352.6112 00.37807576001395 ____________________________________________________________________ These 2-Line ...Continue Reading

Current TLEs

November 1st 2006 PDT

HST 1 20580U 90037B 06303.95453244 +.00000474 +00000-0 +24043-4 0 07532 2 20580 028.4692 244.7971 0004001 184.6559 175.3991 15.00119125705502 ISS (ZARYA) 1 25544U 98067A 06305.19283169 .00019980 00000-0 12079-3 0 9699 2 25544 051.6349 201.4842 0012588 159.7273 337.3659 15.77517852454770 CXO 1 25867U 99040B 06305.20833333 +.00000504 +00000-0 +00000-0 0 09954 2 25867 060.5236 094.1198 5939762 288.2068 352.6112 00.37807576001395 ____________________________________________________________________ These 2-Line ...Continue Reading

Current TLEs

October 31st 2006 PDT

HST 1 20580U 90037B 06304.22065410 .00000507 00000-0 26679-4 0 7306 2 20580 028.4690 243.0609 0003985 186.4751 173.5787 15.00119546705548 ISS (ZARYA) 1 25544U 98067A 06304.37303241 .00019557 00000-0 11852-3 0 9656 2 25544 051.6345 205.7152 0012464 156.6953 001.6043 15.77483317454643 CXO 1 25867U 99040B 06302.58333333 +.00000508 +00000-0 +00000-0 0 09940 2 25867 060.5054 094.1721 5934932 288.2335 355.2895 00.37804373001384 ____________________________________________________________________ These 2-Line ...Continue Reading

Current TLEs

October 30th 2006 PDT

HST 1 20580U 90037B 06302.89004429 .00000452 00000-0 22341-4 0 7299 2 20580 028.4694 251.7365 0004017 174.2834 185.7801 15.00118360705344 ISS (ZARYA) 1 25544U 98067A 06303.35671296 .00024170 00000-0 14564-3 0 9606 2 25544 051.6341 210.9647 0012759 152.6540 350.1966 15.77448757454488 CXO 1 25867U 99040B 06302.58333333 +.00000508 +00000-0 +00000-0 0 09940 2 25867 060.5054 094.1721 5934932 288.2335 355.2895 00.37804373001384 ____________________________________________________________________ These 2-Line ...Continue Reading

Current TLEs

October 29th 2006 PDT

HST 1 20580U 90037B 06301.22678017 .00000457 00000-0 22714-4 0 7283 2 20580 028.4696 262.5777 0004008 156.8589 203.2178 15.00117464705095 ISS (ZARYA) 1 25544U 98067A 06302.50810185 .00022026 00000-0 13334-3 0 9549 2 25544 051.6342 215.3409 0012316 149.8405 210.7287 15.77416203454355 CXO 1 25867U 99040B 06299.95833333 +.00000503 +00000-0 +00000-0 0 09935 2 25867 060.4908 094.2197 5930348 288.2863 357.9157 00.37804131001373 ____________________________________________________________________ These 2-Line ...Continue Reading

Current TLEs

October 28th 2006 PDT

HST 1 20580U 90037B 06301.22678017 .00000457 00000-0 22714-4 0 7283 2 20580 028.4696 262.5777 0004008 156.8589 203.2178 15.00117464705095 ISS (ZARYA) 1 25544U 98067A 06301.32077704 .00016537 00000-0 10140-3 0 9496 2 25544 051.6340 221.4733 0012658 145.2836 308.3995 15.77360347454164 CXO 1 25867U 99040B 06299.95833333 +.00000503 +00000-0 +00000-0 0 09935 2 25867 060.4908 094.2197 5930348 288.2863 357.9157 00.37804131001373 ____________________________________________________________________ These 2-Line ...Continue Reading

Current TLEs

October 27th 2006 PDT

HST 1 20580U 90037B 06298.36596241 +.00000446 +00000-0 +21886-4 0 07312 2 20580 028.4698 281.2264 0003888 129.4972 230.5962 15.00115749704663 ISS (ZARYA) 1 25544U 98067A 06300.44375000 .00033617 00000-0 20178-3 0 9432 2 25544 051.6340 225.9999 0012397 141.4685 008.7018 15.77342491454029 CXO 1 25867U 99040B 06299.95833333 +.00000503 +00000-0 +00000-0 0 09935 2 25867 060.4908 094.2197 5930348 288.2863 357.9157 00.37804131001373 ____________________________________________________________________ These 2-Line ...Continue Reading

Current TLEs

October 27th 2006 PDT

HST 1 20580U 90037B 06299.36392292 .00000459 00000-0 22878-4 0 7274 2 20580 028.4698 274.7211 0003993 138.0742 222.0155 15.00116420704814 ISS (ZARYA) 1 25544U 98067A 06299.30111487 .00018284 00000-0 11213-3 0 9333 2 25544 051.6344 231.8930 0012635 137.6567 359.9187 15.77266671453847 CXO 1 25867U 99040B 06297.33333333 +.00000492 +00000-0 +00000-0 0 09926 2 25867 060.4755 094.2572 5926122 288.3582 000.5147 00.37804317001369 ____________________________________________________________________ These 2-Line ...Continue Reading
  • This mailing list is a public mailing list - anyone may join or leave, at any time.
  • This mailing list is announce-only.

International Space Station (ISS) / Hubble Space Telescope (HST) / Chandra X-Ray Observatory Orbital Data via EMAIL

Privacy Policy:

Private list